Regional Weather Roundup
Issued by NWS

Home | Current Version | Previous Version | Graphics & Text | Print | Product List | Glossary On
Versions: 1 2 3 4 5 6 7 8 9 10 11 12 13 14 15 16 17 18 19 20 21 22 23 24 25 26 27 28 29 30 31 32 33 34 35 36 37 38 39 40 41 42 43 44 45 46 47 48 49 50
621
ASUS43 KDTX 271101
RWRMI
MICHIGAN HOURLY REGIONAL WEATHER ROUNDUP
NATIONAL WEATHER SERVICE DETROIT/PONTIAC MI
700 AM EDT THU APR 27 2017

NOTE: "FAIR" INDICATES FEW OR NO CLOUDS BELOW 12,000 FEET WITH NO
SIGNIFICANT WEATHER AND/OR OBSTRUCTION TO VISIBILITY.

MIZ047>049-052>055-059>063-066>070-074>076-081>083-271200-
SOUTHEAST LOWER MICHIGAN

CITY           SKY/WX    TMP DP  RH WIND       PRES   REMARKS
ADRIAN         CLOUDY    65  56  72 SW16      29.50R
ALMA           CLOUDY    64  56  73 S7        29.39S
ANN ARBOR      CLOUDY    67  55  65 S15       29.48S
BAD AXE        CLEAR     62  52  71 S14       29.48S
CARO           MOCLDY    64  54  69 SE12      29.45S
DETROIT CITY   PTCLDY    65  54  67 S9        29.51S
DETROIT        CLOUDY    67  55  65 S12       29.50S
FLINT          CLOUDY    64  53  67 S13G22    29.44F
GROSSE ILE     CLOUDY    59  54  82 S9        29.50S
HILLSDALE      CLOUDY    61  54  77 S9        29.47S
HOWELL         CLOUDY    65  52  61 S15G21    29.45S

CITY           SKY/WX    TMP DP  RH WIND       PRES   REMARKS
JACKSON        CLOUDY    65  54  67 S10G21    29.47R
LAMBERTVILLE   CLOUDY    69  56  63 SW12G21   29.50S
LANSING        CLOUDY    68  53  58 S17       29.43R
LAPEER         FAIR      62  52  71 SE7       29.48S
MASON          CLOUDY    66  55  68 S7G18     29.45R
MONROE         CLOUDY    69  55  62 S10G23    29.50S
PONTIAC        CLOUDY    63  53  70 SE12      29.48S
PORT HOPE        N/A     58  52  80 SE10      29.46F
PORT HURON     CLEAR     61  50  67 SE9       29.53R
TRI CITIES     CLOUDY    67  53  61 S15G28    29.40F
MIDLAND        FAIR      67  52  58 S12       29.39S
TROY           CLOUDY    68  53  58 S10       29.52S
SAGINAW HB     CLOUDY    64  48  55 S18G26    29.41F
$$
MIZ043>046-050>051-056>058-064>065-071>073-077>080-271200-
SOUTHWEST LOWER MICHIGAN

CITY           SKY/WX    TMP DP  RH WIND       PRES   REMARKS
BATTLE CREEK   CLOUDY    63  57  81 S12       29.44R
BENTON HARBOR  CLOUDY    61  54  77 SE9       29.35F
BIG RAPIDS     MOCLDY    61  56  85 S10G21    29.35R
COLDWATER      CLOUDY    63  55  75 SE9       29.45S
FREMONT        CLOUDY    58  58 100 S8        29.35R FOG
HOLLAND        LGT RAIN  62  57  83 S13       29.36F
GRAND RAPIDS   CLOUDY    63  59  87 S13       29.38R
IONIA          FAIR      65  56  71 S13       29.40R
KALAMAZOO      CLOUDY    63  54  72 S10G18    29.42S
LUDINGTON      DRIZZLE   58  58 100 S10       29.31S
MARSHALL       CLOUDY    64  56  76 S9G21     29.44R
MOUNT PLEASANT CLOUDY    64  55  72 SE8       29.36F
MUSKEGON       LGT RAIN  60  58  92 SE9       29.35R
SOUTH HAVEN    LGT RAIN  60  56  86 S9        29.36F
$$
MIZ016>042-271200-
NORTHERN LOWER MICHIGAN

CITY           SKY/WX    TMP DP  RH WIND       PRES   REMARKS
ALPENA         PTCLDY    52  51  97 SE6       29.42F
BEAVER ISLAND  FOG       47  47  98 E7        29.33S VSB 3/4
BELLAIRE         N/A     56  54  95 CALM      29.31F FOG
CADILLAC       CLOUDY    61  57  87 S12       29.32F
CHARLEVOIX     FOG       56  56 100 CALM      29.33F VSB 3/4
FRANKFORT      CLOUDY   N/A N/A N/A SE3       29.29F FOG
GAYLORD        CLOUDY    62  55  77 S13       29.36F
GRAYLING       CLOUDY    62  56  82 SE9G16    29.36F
HARBOR SPRINGS CLOUDY    53  53 100 E9        29.33F FOG
HOUGHTON LAKE  MOCLDY    62  55  77 SE10      29.36F
MANISTEE       LGT RAIN  58  57  97 SE6       29.30R
OSCODA         PTCLDY    60  49  68 S13       29.43S
PELLSTON       CLOUDY    50  48  93 NE5       29.35F FOG
ROGERS CITY    CLOUDY    59  54  83 SE13      29.39F
TRAVERSE CITY  CLOUDY    55  54  96 CALM      29.27F FOG
$$
MIZ007>008-015-271200-
EASTERN UPPER MICHIGAN

CITY           SKY/WX    TMP DP  RH WIND       PRES   REMARKS
KINROSS        CLOUDY    49  49 100 E12       29.38F FOG
MACKINAC ISLAN CLOUDY    42  42 100 E16G24    29.35F FOG
NEWBERRY       FOG       43  43  97 N6        29.33F VSB 3/4
S. S. MARIE    CLOUDY    54  51  90 E8        29.38S FOG
MUNISING         N/A     35  34  96 NW14      29.38F WCI  26
$$
MIZ004>006-011>014-085-271200-
CENTRAL UPPER MICHIGAN

CITY           SKY/WX    TMP DP  RH WIND       PRES   REMARKS
MANISTIQUE     LGT RAIN  38  37  97 N15G21    29.30F WCI  29
ESCANABA       MIX PCPN  36  35  96 NW9       29.33F WCI  29
MENOMINEE      LGT RAIN  40  38  93 N10G17    29.33F WCI  33
SAWYER-GWINN   CLOUDY    32  30  93 N13       29.37F FOG     WCI  22
$$
MIZ001>003-009>011-084-271200-
WESTERN UPPER MICHIGAN

CITY           SKY/WX    TMP DP  RH WIND       PRES   REMARKS
IRON MOUNTAIN  RAIN      34  30  85 N12       29.35F FOG     WCI  25
HOUGHTON       LGT SNOW  29  25  85 N10       29.45S FOG     WCI  20
IRONWOOD       MIX PCPN  26  25  96 N10       29.49F FOG     WCI  16
$$

ABBREVIATIONS USED IN REMARKS
   TC - TEMPERATURE IN CELSIUS
  WCI - WIND CHILL INDEX
   HX - HEAT INDEX
  VSB - VISIBILITY





USA.gov is the U.S. government's official web portal to all federal, state and local government web resources and services.